Zurück zum Katalog

STARLINK-31262

AktivKommunikationVLEO
NORAD 58847·PAYLOAD·🇺🇸 United States

Gestartet Jan 24, 2024 von Vandenberg Space Force Base

Loading…

Nächste Überflüge (nächste 24 Stunden)

TLE

AktuellSource: CelesTrak SupGP

Epoche: Sep 14, 2026, 22:13 UTC

1 58847C 24017X   26257.92618056 -.00031609  00000+0 -93410-3 0  2572
2 58847  53.1567 133.4140 0001197  84.2357 182.7952 15.34399395    10

Verfolge STARLINK-31262 in Echtzeit mit AllMySat

Download on the App Store